星链-31579 (STARLINK-31579 )

导读

STARLINK-31579是美国太空探索技术公司SpaceX星链星座的一员,于2024年3月19日发射升空。星链项目旨在构建全球卫星互联网星座,为全球提供低延迟、高速率的宽带网络服务,该卫星入轨后将扩充星链星座的服务覆盖范围与网络容量,推进星链星座的部署进程。

Basic Information
目录编号:
59267
目录名称:
STARLINK-31579
国际标识:
2024-050P
轨道中心:
EARTH
卫星名称:
星链-31579
卫星全名:
星链-31579 (STARLINK-31579 )
卫星状态:
在轨 (已飞行899 天)
发射日期:
2024-03-19 UTC
国别 :
美国 (US)
星等 :
--
Orbit Information
数据来源 国际轨道数据
星历时间: 2026-09-03T21:22:11+0800
16小时前
查看轨道信息
半长轴: 6840.865km
偏心率: 0.0000682
轨道倾角: 53.160°
近地点辐角 72.181°
升交点赤经 74.619°
平近点角 287.927°
近地点: 462.261km
远地点: 463.195km
周期: 93.848分钟
每日圈数: 15.343917
Detailed Information
固有亮度:
5
最大亮度:
0.3
卫星平台:
Starlink v2.0 mini
覆盖范围:
全球
运营商:
太空探索技术公司
运营商所在国:
美国
制造商(研发单位):
太空探索技术公司
制造商所在国:
美国
使用方式:
暂无
Satellite Introduction
星链(Starlink)计划是由太空探索技术公司(SpaceX)提出的一个巨型低轨卫星互联网星座项目,计划在2019年至2024年间在太空搭建由约1.2万颗卫星组成的“星链”网络,其中1584颗将部署在地球上空550千米处的近地轨道,并从2020年开始工作。该卫星仍在工作。
2D Orbit Map
3D Orbit Map
Orbit Altitude Analysis Chart
Orbit Inclination Analysis Chart
Orbit Comprehensive Analysis Chart
View Comprehensive Chart
Conjunction Data List
Event ID Objects TCA Miss Dist (km) Collision Risk Probability Collision Risk Index (CRI) Action
CDM_260902-211705-926706-662624
2026-09-02T
21:17:21+0000
0.191 km
中距离
5.632096E-4 高风险 0.9
CDM_260902-172205-926706-662624
2026-09-02T
17:22:52+0000
0.779 km
远距离
2.68898E-5 中风险 0.64
CDM_260830-182505-926706-546021
2026-08-30T
18:25:01+0000
1.159 km
极远距离
9.944916E-6 低风险 0.55
CDM_260903-104002-054705-926725
USA 55 (20547)
2026-09-03T
10:40:44+0000
2.241 km
极远距离
1.970983E-6 低风险 0.41
CDM_260903-133405-926706-539721
2026-09-03T
13:34:27+0000
2.968 km
极远距离
9.081371E-7 极低风险 0.34
CDM_260907-134605-926605-926721
2026-09-07T
13:46:43+0000
2.818 km
极远距离
2.337406E-7 极低风险 0.22